Tiempo cada hora Barpali

Hoy, 14 Mayo, Viernes

Tiempo Temperatura Precipitaciones Viento Presión Humedad
00:00 +33°C° 0 mm 3 mps 737 mmHg 48%
01:00 +31°C° 0 mm 2 mps 737 mmHg 50%
02:00 +31°C° 0 mm 2 mps 736 mmHg 52%
03:00 +30°C° 0 mm 1 mps 736 mmHg 54%
04:00 +30°C° 0 mm 1 mps 737 mmHg 55%
05:00 +30°C° 0 mm 1 mps 737 mmHg 56%
06:00 +30°C° 0 mm 1 mps 737 mmHg 55%
07:00 +32°C° 0 mm 2 mps 738 mmHg 47%
08:00 +35°C° 0 mm 3 mps 738 mmHg 40%
09:00 +37°C° 0 mm 3 mps 739 mmHg 33%
10:00 +39°C° 0 mm 3 mps 738 mmHg 29%
11:00 +40°C° 0 mm 3 mps 738 mmHg 24%
12:00 +43°C° 0 mm 3 mps 738 mmHg 20%
13:00 +44°C° 0 mm 3 mps 737 mmHg 18%
14:00 +44°C° 0 mm 3 mps 736 mmHg 16%
15:00 +45°C° 0 mm 3 mps 735 mmHg 15%
16:00 +43°C° 0 mm 2 mps 735 mmHg 15%
17:00 +43°C° 0 mm 2 mps 735 mmHg 16%
18:00 +42°C° 0 mm 1 mps 735 mmHg 16%
19:00 +41°C° 0 mm 1 mps 735 mmHg 18%
20:00 +40°C° 0 mm 1 mps 736 mmHg 20%
21:00 +37°C° 0 mm 1 mps 736 mmHg 22%
22:00 +37°C° 0 mm 2 mps 736 mmHg 25%
23:00 +36°C° 0 mm 2 mps 736 mmHg 29%

Mañana, 15 Mayo, Sábado

Tiempo Temperatura Precipitaciones Viento Presión Humedad
00:00 +36°C° 0 mm 2 mps 736 mmHg 32%
01:00 +35°C° 0 mm 2 mps 736 mmHg 35%
02:00 +35°C° 0 mm 2 mps 736 mmHg 37%
03:00 +34°C° 0 mm 2 mps 736 mmHg 40%
04:00 +33°C° 0 mm 1 mps 737 mmHg 43%
05:00 +32°C° 0 mm 1 mps 737 mmHg 46%
06:00 +32°C° 0 mm 1 mps 738 mmHg 48%
07:00 +34°C° 0 mm 1 mps 738 mmHg 44%
08:00 +37°C° 0 mm 2 mps 739 mmHg 39%
09:00 +38°C° 0 mm 2 mps 739 mmHg 35%
10:00 +40°C° 0 mm 2 mps 739 mmHg 31%
11:00 +41°C° 0 mm 2 mps 739 mmHg 27%
12:00 +43°C° 0 mm 2 mps 738 mmHg 23%
13:00 +45°C° 0 mm 2 mps 737 mmHg 22%
14:00 +45°C° 0 mm 2 mps 737 mmHg 20%
15:00 +46°C° 0 mm 2 mps 736 mmHg 18%
16:00 +45°C° 0 mm 3 mps 736 mmHg 20%
17:00 +44°C° 0 mm 4 mps 735 mmHg 21%
18:00 +43°C° 0 mm 4 mps 735 mmHg 23%
19:00 +42°C° 0.1 mm 3 mps 736 mmHg 26%
20:00 +40°C° 0.1 mm 2 mps 737 mmHg 29%
21:00 +38°C° 0.1 mm 2 mps 738 mmHg 33%
22:00 +38°C° 0 mm 2 mps 738 mmHg 34%
23:00 +37°C° 0 mm 2 mps 738 mmHg 36%

Pasado mañana, 16 Mayo, Domingo

Tiempo Temperatura Precipitaciones Viento Presión Humedad
00:00 +36°C° 0 mm 3 mps 738 mmHg 38%
01:00 +36°C° 0 mm 2 mps 738 mmHg 40%
02:00 +35°C° 0 mm 2 mps 737 mmHg 43%
03:00 +35°C° 0 mm 2 mps 737 mmHg 46%
04:00 +34°C° 0 mm 2 mps 737 mmHg 49%
05:00 +34°C° 0 mm 2 mps 738 mmHg 52%
06:00 +33°C° 0 mm 3 mps 738 mmHg 55%
07:00 +35°C° 0 mm 3 mps 739 mmHg 50%
08:00 +36°C° 0 mm 3 mps 739 mmHg 45%
09:00 +38°C° 0 mm 4 mps 740 mmHg 41%
10:00 +39°C° 0 mm 3 mps 740 mmHg 36%
11:00 +42°C° 0 mm 3 mps 739 mmHg 32%
12:00 +42°C° 0 mm 2 mps 739 mmHg 28%
13:00 +43°C° 0 mm 2 mps 738 mmHg 25%
14:00 +44°C° 0 mm 1 mps 737 mmHg 23%
15:00 +45°C° 0 mm 1 mps 736 mmHg 20%
16:00 +45°C° 0 mm 1 mps 736 mmHg 20%
17:00 +45°C° 0 mm 2 mps 736 mmHg 20%
18:00 +45°C° 0 mm 2 mps 736 mmHg 20%
19:00 +42°C° 0 mm 2 mps 736 mmHg 23%
20:00 +41°C° 0 mm 2 mps 737 mmHg 26%
21:00 +39°C° 0 mm 2 mps 737 mmHg 29%
22:00 +39°C° 0 mm 2 mps 737 mmHg 31%
23:00 +38°C° 0 mm 3 mps 738 mmHg 34%

17 Mayo, Lunes

Tiempo Temperatura Precipitaciones Viento Presión Humedad
00:00 +38°C° 0 mm 3 mps 738 mmHg 36%
01:00 +37°C° 0 mm 3 mps 738 mmHg 40%
02:00 +36°C° 0 mm 3 mps 737 mmHg 43%
03:00 +35°C° 0 mm 3 mps 737 mmHg 47%
04:00 +35°C° 0 mm 3 mps 737 mmHg 50%
05:00 +34°C° 0 mm 3 mps 738 mmHg 53%
06:00 +34°C° 0 mm 3 mps 738 mmHg 55%
07:00 +35°C° 0 mm 3 mps 739 mmHg 50%
08:00 +37°C° 0 mm 3 mps 739 mmHg 45%
09:00 +39°C° 0 mm 3 mps 740 mmHg 39%
10:00 +40°C° 0 mm 3 mps 739 mmHg 34%
11:00 +43°C° 0 mm 3 mps 739 mmHg 30%
12:00 +45°C° 0 mm 3 mps 739 mmHg 25%
13:00 +45°C° 0 mm 2 mps 738 mmHg 23%
14:00 +46°C° 0 mm 2 mps 737 mmHg 21%
15:00 +47°C° 0 mm 2 mps 736 mmHg 19%
16:00 +46°C° 0 mm 2 mps 736 mmHg 20%
17:00 +46°C° 0 mm 2 mps 735 mmHg 21%
18:00 +45°C° 0 mm 3 mps 735 mmHg 21%
19:00 +43°C° 0 mm 3 mps 736 mmHg 26%
20:00 +40°C° 0 mm 3 mps 736 mmHg 31%
21:00 +38°C° 0 mm 4 mps 737 mmHg 35%
22:00 +38°C° 0 mm 3 mps 737 mmHg 36%
23:00 +37°C° 0 mm 2 mps 737 mmHg 37%

18 Mayo, Martes

Tiempo Temperatura Precipitaciones Viento Presión Humedad
00:00 +36°C° 0 mm 1 mps 738 mmHg 39%
01:00 +36°C° 0 mm 2 mps 737 mmHg 40%
02:00 +36°C° 0 mm 2 mps 737 mmHg 41%
03:00 +35°C° 0 mm 2 mps 737 mmHg 42%
04:00 +35°C° 0 mm 3 mps 737 mmHg 44%
05:00 +35°C° 0 mm 3 mps 737 mmHg 46%
06:00 +35°C° 0 mm 4 mps 737 mmHg 48%
07:00 +37°C° 0 mm 4 mps 738 mmHg 43%
08:00 +40°C° 0 mm 4 mps 738 mmHg 38%
09:00 +42°C° 0 mm 5 mps 739 mmHg 33%
10:00 +43°C° 0 mm 4 mps 738 mmHg 30%
11:00 +44°C° 0 mm 4 mps 738 mmHg 27%
12:00 +47°C° 0 mm 4 mps 738 mmHg 24%
13:00 +46°C° 0 mm 3 mps 737 mmHg 23%
14:00 +47°C° 0 mm 3 mps 736 mmHg 21%
15:00 +47°C° 0 mm 2 mps 735 mmHg 20%
16:00 +47°C° 0 mm 4 mps 735 mmHg 24%
17:00 +45°C° 0 mm 5 mps 735 mmHg 27%
18:00 +44°C° 0 mm 7 mps 735 mmHg 31%
19:00 +41°C° 0 mm 6 mps 736 mmHg 35%
20:00 +39°C° 0 mm 5 mps 736 mmHg 39%
21:00 +36°C° 0 mm 5 mps 737 mmHg 44%
22:00 +36°C° 0 mm 4 mps 737 mmHg 44%
23:00 +36°C° 0 mm 3 mps 737 mmHg 44%

19 Mayo, Miércoles

Tiempo Temperatura Precipitaciones Viento Presión Humedad
00:00 +36°C° 0 mm 2 mps 737 mmHg 44%
01:00 +35°C° 0.2 mm 2 mps 736 mmHg 46%
02:00 +34°C° 0.2 mm 2 mps 736 mmHg 48%
03:00 +34°C° 0.2 mm 2 mps 736 mmHg 51%
04:00 +34°C° 0 mm 2 mps 736 mmHg 51%
05:00 +34°C° 0 mm 2 mps 737 mmHg 52%
06:00 +32°C° 0 mm 2 mps 737 mmHg 52%
07:00 +36°C° 0 mm 3 mps 738 mmHg 46%
08:00 +38°C° 0 mm 4 mps 738 mmHg 40%
09:00 +41°C° 0 mm 5 mps 739 mmHg 34%
10:00 +42°C° 0 mm 5 mps 738 mmHg 31%
11:00 +45°C° 0 mm 5 mps 738 mmHg 28%
12:00 +47°C° 0 mm 5 mps 737 mmHg 25%
13:00 +47°C° 0 mm 5 mps 736 mmHg 23%
14:00 +48°C° 0 mm 5 mps 736 mmHg 22%
15:00 +49°C° 0 mm 5 mps 735 mmHg 20%
16:00 +48°C° 0 mm 4 mps 735 mmHg 20%
17:00 +48°C° 0 mm 4 mps 734 mmHg 20%
18:00 +47°C° 0 mm 4 mps 734 mmHg 20%
19:00 +45°C° 0 mm 4 mps 734 mmHg 24%
20:00 +43°C° 0 mm 4 mps 735 mmHg 27%
21:00 +42°C° 0 mm 5 mps 735 mmHg 30%
22:00 +41°C° 0 mm 5 mps 735 mmHg 31%
23:00 +40°C° 0 mm 5 mps 735 mmHg 33%
Mostrar más

Necesitamos Su Consentimiento

Meteoprog y nuestros Proveedores de Servicios pueden almacenar y acceder a sus datos personales como cookies, identificadores de dispositivo u otras tecnologías similares de su dispositivo y procesar dichos datos para personalizar contenido y anuncios, además de ofrecer funciones de redes sociales y analizar el tráfico.

  • Almacenar y/o acceder a información en su dispositivo

    Se puede almacenar o acceder a cookies, identificadores de dispositivo u otra información de su dispositivo para los fines anteriormente indicados.

  • Anuncios y contenido personalizados, medición de anuncios y contenido, percepciones del público, y desarrollo de productos

    Los anuncios y el contenido pueden personalizarse en base a su perfil. Se pueden añadir más datos para personalizar mejor los anuncios y contenidos. Se puede medir el rendimiento de los anuncios y contenidos. Se puede obtener la percepción sobre el público que ha visto los anuncios y contenidos. Dichos datos pueden usarse para desarrollar o mejorar la experiencia del usuario, sistemas y software.

Al hacer clic en ‘Estoy De Acuerdo’ usted permitirá el uso de las cookies, identificadores de dispositivo, balizas web u otras tecnologías similares indicadas. Su configuración puede cambiarse desde el navegador de su dispositivo.

Para ciertos fines, los intereses legítimos pueden ser considerados por encima del consentimiento. Puede leer más sobre ello en nuestra Política de Privacidad y Cookies.